QPF
0.03 0.03 0.03 0.02 0.04 0.05 0.03 0.02 0.02 0.02 0.02 0.02 0.02 0.03 0.04 0.03 0.02 0.01 0.02 0.02 0.03 0.03 0.03 0.03 0.04 0.04 0.04 0.03 0.02 0.02 0.01 0.01 0.01 0.01 0.01 0.01 0.00 0.00 0.00 0.00 0.01 0.02 0.02
0.05 0.04 0.04 0.04 0.05 0.05 0.04 0.03 0.02 0.03 0.02 0.02 0.02 0.03 0.03 0.03 0.02 0.01 0.01 0.01 0.01 0.02 0.02 0.03 0.03 0.03 0.04 0.03 0.02 0.01 0.01 0.01 0.00 0.00 0.01 0.00 0.00 0.00 0.00 0.00 0.00 0.00 0.01
0.06 0.06 0.06 0.07 0.07 0.06 0.04 0.03 0.03 0.03 0.04 0.02 0.02 0.03 0.03 0.03 0.03 0.02 0.01 0.00 0.00 0.01 0.02 0.02 0.03 0.03 0.03 0.04 0.03 0.02 0.01 0.01 0.00 0.00 0.00 0.00 0.00 0.00 0.00 0.00 0.00 0.00 0.00
0.07 0.07 0.08 0.09 0.08 0.07 0.05 0.03 0.03 0.04 0.05 0.04 0.02 0.02 0.02 0.02 0.03 0.02 0.01 0.01 0.00 0.00 0.01 0.02 0.02 0.03 0.03 0.03 0.03 0.02 0.01 0.01 0.01 0.00 0.00 0.00 0.00 0.00 0.00 0.00 0.00 0.00 0.00
0.07 0.09 0.08 0.08 0.08 0.07 0.06 0.04 0.03 0.03 0.05 0.05 0.03 0.02 0.02 0.02 0.03 0.03 0.02 0.02 0.01 0.01 0.01 0.02 0.02 0.03 0.03 0.03 0.03 0.02 0.01 0.01 0.01 0.00 0.00 0.00 0.00 0.00 0.00 0.00 0.00 0.00 0.00
0.05 0.07 0.08 0.08 0.08 0.07 0.06 0.04 0.03 0.03 0.04 0.06 0.05 0.03 0.01 0.02 0.02 0.02 0.03 0.02 0.02 0.02 0.02 0.02 0.02 0.02 0.02 0.03 0.02 0.02 0.01 0.01 0.01 0.00 0.00 0.00 0.00 0.00 0.00 0.00 0.00 0.00 0.00
0.04 0.05 0.07 0.08 0.07 0.07 0.06 0.06 0.05 0.05 0.05 0.05 0.05 0.04 0.02 0.01 0.01 0.02 0.02 0.02 0.01 0.02 0.02 0.02 0.02 0.02 0.02 0.02 0.02 0.02 0.01 0.01 0.01 0.00 0.00 0.00 0.00 0.00 0.00 0.00 0.00 0.00 0.00
0.03 0.04 0.06 0.07 0.07 0.05 0.06 0.07 0.07 0.06 0.06 0.05 0.05 0.05 0.04 0.03 0.03 0.02 0.03 0.02 0.02 0.01 0.01 0.01 0.01 0.01 0.01 0.01 0.01 0.01 0.01 0.01 0.00 0.00 0.00 0.00 0.00 0.00 0.00 0.00 0.00 0.00 0.00
0.02 0.03 0.04 0.05 0.06 0.06 0.05 0.05 0.06 0.06 0.06 0.05 0.05 0.05 0.04 0.03 0.03 0.04 0.04 0.03 0.02 0.01 0.01 0.01 0.01 0.01 0.01 0.01 0.01 0.01 0.01 0.01 0.00 0.00 0.01 0.01 0.00 0.00 0.00 0.00 0.00 0.00 0.00
0.02 0.03 0.03 0.03 0.04 0.05 0.05 0.04 0.04 0.05 0.05 0.05 0.05 0.04 0.04 0.04 0.03 0.03 0.03 0.03 0.02 0.01 0.01 0.01 0.01 0.01 0.01 0.01 0.01 0.01 0.01 0.01 0.01 0.01 0.02 0.02 0.01 0.01 0.00 0.00 0.00 0.01 0.01
0.01 0.01 0.02 0.02 0.03 0.03 0.03 0.03 0.03 0.03 0.03 0.04 0.04 0.04 0.04 0.04 0.04 0.03 0.03 0.03 0.03 0.02 0.01 0.01 0.01 0.01 0.01 0.01 0.01 0.01 0.00 0.01 0.01 0.01 0.02 0.02 0.02 0.01 0.01 0.01 0.00 0.01 0.01
0.00 0.01 0.01 0.01 0.01 0.02 0.02 0.02 0.02 0.02 0.03 0.02 0.02 0.03 0.03 0.03 0.03 0.03 0.03 0.03 0.03 0.02 0.02 0.02 0.02 0.02 0.01 0.01 0.01 0.01 0.01 0.01 0.01 0.01 0.01 0.01 0.01 0.01 0.01 0.01 0.01 0.00 0.00
0.00 0.01 0.01 0.01 0.01 0.01 0.01 0.01 0.01 0.01 0.02 0.02 0.02 0.02 0.02 0.02 0.02 0.02 0.02 0.02 0.02 0.02 0.02 0.02 0.02 0.02 0.02 0.02 0.01 0.01 0.01 0.01 0.01 0.01 0.01 0.01 0.01 0.01 0.01 0.01 0.01 0.01 0.00
0.00 0.00 0.01 0.01 0.00 0.00 0.00 0.00 0.01 0.01 0.01 0.01 0.01 0.02 0.02 0.02 0.02 0.02 0.02 0.02 0.02 0.02 0.01 0.02 0.02 0.02 0.02 0.02 0.02 0.02 0.01 0.01 0.01 0.02 0.02 0.01 0.01 0.01 0.01 0.01 0.01 0.01 0.01
0.00 0.00 0.00 0.00 0.00 0.00 0.00 0.00 0.01 0.01 0.01 0.01 0.01 0.01 0.01 0.02 0.02 0.02 0.02 0.02 0.02 0.02 0.02 0.02 0.02 0.02 0.01 0.01 0.01 0.01 0.01 0.01 0.02 0.02 0.02 0.01 0.01 0.01 0.01 0.01 0.01 0.01 0.01
0.00 0.00 0.00 0.00 0.00 0.00 0.00 0.00 0.00 0.00 0.01 0.01 0.01 0.01 0.01 0.01 0.02 0.02 0.02 0.02 0.02 0.02 0.02 0.02 0.02 0.02 0.01 0.01 0.01 0.01 0.01 0.01 0.02 0.02 0.01 0.01 0.01 0.01 0.01 0.01 0.01 0.01 0.01
0.00 0.00 0.00 0.00 0.00 0.00 0.00 0.00 0.00 0.00 0.00 0.01 0.01 0.01 0.01 0.01 0.02 0.02 0.02 0.02 0.02 0.02 0.02 0.02 0.02 0.02 0.02 0.02 0.02 0.02 0.02 0.01 0.02 0.02 0.01 0.01 0.01 0.01 0.01 0.01 0.01 0.01 0.01
0.00 0.00 0.00 0.00 0.00 0.00 0.00 0.00 0.00 0.01 0.01 0.01 0.01 0.01 0.01 0.01 0.01 0.02 0.02 0.02 0.02 0.02 0.02 0.02 0.02 0.03 0.03 0.03 0.03 0.03 0.02 0.02 0.02 0.02 0.02 0.02 0.02 0.02 0.01 0.01 0.01 0.01 0.01
0.00 0.00 0.00 0.00 0.00 0.00 0.00 0.00 0.00 0.01 0.01 0.01 0.01 0.01 0.01 0.01 0.01 0.01 0.01 0.02 0.02 0.02 0.02 0.02 0.03 0.03 0.03 0.03 0.02 0.02 0.02 0.02 0.02 0.02 0.02 0.02 0.02 0.01 0.01 0.01 0.01 0.01 0.02
0.00 0.00 0.00 0.00 0.00 0.00 0.00 0.01 0.01 0.01 0.01 0.01 0.01 0.01 0.01 0.01 0.01 0.01 0.01 0.01 0.02 0.02 0.02 0.03 0.03 0.03 0.03 0.03 0.02 0.02 0.02 0.02 0.02 0.02 0.02 0.02 0.02 0.02 0.02 0.01 0.01 0.01 0.02
0.00 0.00 0.00 0.00 0.00 0.00 0.01 0.01 0.01 0.01 0.01 0.01 0.01 0.01 0.01 0.01 0.01 0.01 0.02 0.02 0.02 0.02 0.03 0.03 0.03 0.03 0.03 0.03 0.02 0.02 0.02 0.02 0.02 0.02 0.02 0.02 0.02 0.02 0.01 0.01 0.01 0.01 0.02
0.00 0.00 0.00 0.00 0.00 0.01 0.01 0.01 0.01 0.01 0.01 0.01 0.01 0.01 0.01 0.01 0.01 0.02 0.02 0.02 0.02 0.02 0.03 0.03 0.03 0.02 0.02 0.02 0.02 0.02 0.02 0.02 0.02 0.02 0.02 0.02 0.02 0.02 0.01 0.01 0.01 0.01 0.01
0.00 0.00 0.00 0.00 0.00 0.01 0.01 0.01 0.01 0.01 0.01 0.01 0.01 0.01 0.01 0.02 0.02 0.02 0.02 0.02 0.02 0.02 0.02 0.02 0.02 0.01 0.01 0.01 0.01 0.02 0.02 0.02 0.02 0.02 0.02 0.02 0.02 0.02 0.02 0.02 0.01 0.01 0.01
0.00 0.01 0.01 0.01 0.01 0.01 0.01 0.01 0.01 0.01 0.01 0.01 0.01 0.01 0.02 0.02 0.02 0.02 0.02 0.02 0.02 0.01 0.01 0.01 0.01 0.01 0.01 0.01 0.01 0.01 0.02 0.02 0.02 0.02 0.02 0.02 0.02 0.02 0.02 0.02 0.01 0.01 0.01
0.00 0.01 0.01 0.01 0.01 0.01 0.01 0.01 0.01 0.01 0.01 0.01 0.01 0.01 0.02 0.02 0.02 0.02 0.02 0.02 0.02 0.01 0.01 0.01 0.01 0.01 0.01 0.01 0.01 0.01 0.02 0.02 0.02 0.02 0.02 0.02 0.02 0.02 0.02 0.02 0.01 0.01 0.01
0.00 0.01 0.01 0.01 0.01 0.01 0.01 0.01 0.01 0.01 0.01 0.01 0.01 0.01 0.02 0.02 0.02 0.02 0.02 0.02 0.01 0.01 0.01 0.01 0.01 0.01 0.01 0.01 0.01 0.01 0.02 0.02 0.02 0.02 0.02 0.03 0.02 0.02 0.02 0.02 0.01 0.01 0.01
MSLP
1014.88 1015.07 1015.30 1015.53 1015.74 1015.92 1016.06 1016.18 1016.29 1016.40 1016.53 1016.68 1016.87 1017.07 1017.29 1017.50 1017.72 1017.93 1018.14 1018.36 1018.59 1018.84 1019.09 1019.35 1019.61 1019.85 1020.06 1020.24 1020.39 1020.53 1020.66 1020.80 1020.97 1021.17 1021.40 1021.65 1021.89 1022.09 1022.24 1022.33 1022.34 1022.29 1022.18
1014.80 1014.97 1015.18 1015.40 1015.60 1015.77 1015.91 1016.04 1016.16 1016.29 1016.44 1016.62 1016.83 1017.06 1017.30 1017.55 1017.79 1018.02 1018.25 1018.48 1018.72 1018.97 1019.22 1019.47 1019.72 1019.94 1020.15 1020.33 1020.49 1020.63 1020.77 1020.92 1021.10 1021.30 1021.52 1021.74 1021.95 1022.13 1022.25 1022.31 1022.29 1022.21 1022.09
1014.65 1014.81 1015.00 1015.20 1015.39 1015.56 1015.70 1015.83 1015.97 1016.12 1016.29 1016.49 1016.72 1016.97 1017.24 1017.50 1017.76 1018.01 1018.25 1018.49 1018.73 1018.98 1019.22 1019.47 1019.72 1019.95 1020.16 1020.35 1020.52 1020.68 1020.84 1021.00 1021.19 1021.38 1021.59 1021.79 1021.98 1022.13 1022.23 1022.26 1022.23 1022.15 1022.02
1014.43 1014.57 1014.75 1014.94 1015.12 1015.29 1015.44 1015.58 1015.73 1015.90 1016.09 1016.32 1016.57 1016.83 1017.11 1017.39 1017.65 1017.91 1018.16 1018.40 1018.64 1018.88 1019.12 1019.37 1019.61 1019.84 1020.06 1020.27 1020.46 1020.65 1020.82 1021.00 1021.19 1021.38 1021.58 1021.77 1021.93 1022.06 1022.14 1022.17 1022.14 1022.06 1021.95
1014.15 1014.28 1014.44 1014.62 1014.80 1014.97 1015.14 1015.30 1015.47 1015.66 1015.88 1016.12 1016.39 1016.67 1016.95 1017.24 1017.51 1017.77 1018.01 1018.24 1018.47 1018.71 1018.94 1019.18 1019.42 1019.66 1019.90 1020.12 1020.33 1020.53 1020.73 1020.92 1021.11 1021.30 1021.48 1021.65 1021.79 1021.91 1021.98 1022.01 1022.00 1021.95 1021.87
1013.82 1013.93 1014.09 1014.26 1014.45 1014.63 1014.81 1015.00 1015.20 1015.42 1015.66 1015.93 1016.21 1016.51 1016.80 1017.09 1017.36 1017.61 1017.85 1018.08 1018.30 1018.52 1018.74 1018.98 1019.22 1019.46 1019.70 1019.93 1020.16 1020.37 1020.58 1020.78 1020.97 1021.15 1021.31 1021.46 1021.59 1021.69 1021.76 1021.80 1021.81 1021.79 1021.75
1013.47 1013.56 1013.70 1013.88 1014.07 1014.27 1014.48 1014.70 1014.94 1015.19 1015.47 1015.76 1016.07 1016.38 1016.68 1016.97 1017.25 1017.50 1017.73 1017.95 1018.16 1018.37 1018.59 1018.81 1019.05 1019.29 1019.53 1019.77 1020.00 1020.22 1020.43 1020.62 1020.80 1020.96 1021.11 1021.24 1021.35 1021.43 1021.50 1021.56 1021.59 1021.61 1021.61
1013.11 1013.18 1013.32 1013.49 1013.70 1013.92 1014.17 1014.43 1014.70 1015.00 1015.31 1015.64 1015.97 1016.30 1016.62 1016.93 1017.21 1017.47 1017.70 1017.92 1018.12 1018.33 1018.53 1018.75 1018.97 1019.20 1019.43 1019.67 1019.89 1020.11 1020.31 1020.50 1020.66 1020.80 1020.92 1021.03 1021.12 1021.19 1021.26 1021.32 1021.37 1021.42 1021.46
1012.77 1012.83 1012.95 1013.13 1013.36 1013.61 1013.89 1014.20 1014.52 1014.86 1015.22 1015.58 1015.94 1016.30 1016.64 1016.96 1017.26 1017.52 1017.77 1017.99 1018.20 1018.40 1018.60 1018.80 1019.01 1019.22 1019.45 1019.66 1019.88 1020.08 1020.26 1020.43 1020.57 1020.69 1020.80 1020.88 1020.94 1021.00 1021.06 1021.12 1021.18 1021.25 1021.31
1012.48 1012.52 1012.64 1012.83 1013.08 1013.36 1013.69 1014.04 1014.41 1014.80 1015.19 1015.59 1015.99 1016.37 1016.73 1017.08 1017.39 1017.67 1017.93 1018.16 1018.37 1018.57 1018.77 1018.96 1019.16 1019.36 1019.56 1019.75 1019.94 1020.12 1020.29 1020.43 1020.56 1020.66 1020.73 1020.79 1020.84 1020.89 1020.93 1020.99 1021.05 1021.12 1021.20
1012.26 1012.29 1012.42 1012.62 1012.89 1013.21 1013.57 1013.97 1014.38 1014.81 1015.25 1015.68 1016.10 1016.51 1016.89 1017.25 1017.58 1017.88 1018.15 1018.40 1018.62 1018.82 1019.02 1019.20 1019.38 1019.56 1019.73 1019.90 1020.07 1020.23 1020.37 1020.49 1020.60 1020.68 1020.74 1020.78 1020.81 1020.84 1020.88 1020.92 1020.97 1021.04 1021.11
1012.14 1012.17 1012.30 1012.52 1012.81 1013.16 1013.57 1014.00 1014.45 1014.92 1015.38 1015.83 1016.27 1016.69 1017.09 1017.45 1017.80 1018.11 1018.39 1018.65 1018.88 1019.09 1019.29 1019.46 1019.63 1019.78 1019.93 1020.08 1020.21 1020.35 1020.47 1020.58 1020.67 1020.74 1020.79 1020.82 1020.84 1020.86 1020.88 1020.91 1020.95 1021.00 1021.05
1012.15 1012.18 1012.32 1012.55 1012.87 1013.25 1013.68 1014.15 1014.63 1015.11 1015.59 1016.05 1016.48 1016.90 1017.29 1017.66 1018.00 1018.31 1018.61 1018.87 1019.11 1019.33 1019.52 1019.69 1019.84 1019.98 1020.11 1020.23 1020.34 1020.45 1020.56 1020.65 1020.74 1020.80 1020.85 1020.89 1020.90 1020.91 1020.92 1020.93 1020.94 1020.97 1021.00
1012.30 1012.34 1012.49 1012.73 1013.07 1013.47 1013.92 1014.41 1014.90 1015.38 1015.85 1016.30 1016.72 1017.11 1017.48 1017.82 1018.15 1018.46 1018.75 1019.01 1019.26 1019.48 1019.67 1019.84 1019.98 1020.11 1020.22 1020.33 1020.43 1020.52 1020.62 1020.71 1020.79 1020.86 1020.92 1020.95 1020.97 1020.97 1020.96 1020.95 1020.94 1020.92 1020.92
1012.60 1012.65 1012.81 1013.07 1013.41 1013.83 1014.29 1014.77 1015.25 1015.72 1016.16 1016.57 1016.95 1017.29 1017.62 1017.93 1018.23 1018.52 1018.80 1019.06 1019.30 1019.52 1019.72 1019.89 1020.03 1020.16 1020.26 1020.36 1020.46 1020.55 1020.65 1020.74 1020.83 1020.90 1020.96 1021.00 1021.01 1021.01 1020.98 1020.94 1020.89 1020.84 1020.78
1013.04 1013.11 1013.28 1013.54 1013.89 1014.30 1014.75 1015.21 1015.66 1016.09 1016.49 1016.84 1017.16 1017.45 1017.72 1017.98 1018.23 1018.49 1018.75 1019.00 1019.24 1019.46 1019.67 1019.84 1020.00 1020.13 1020.24 1020.35 1020.45 1020.54 1020.64 1020.74 1020.84 1020.92 1020.98 1021.02 1021.03 1021.00 1020.95 1020.88 1020.79 1020.69 1020.58
1013.61 1013.69 1013.86 1014.12 1014.47 1014.86 1015.28 1015.71 1016.12 1016.49 1016.82 1017.10 1017.35 1017.57 1017.77 1017.97 1018.18 1018.40 1018.63 1018.87 1019.11 1019.34 1019.55 1019.74 1019.91 1020.06 1020.19 1020.30 1020.41 1020.52 1020.63 1020.73 1020.83 1020.91 1020.97 1021.00 1020.99 1020.94 1020.86 1020.75 1020.61 1020.45 1020.28
1014.27 1014.36 1014.53 1014.78 1015.11 1015.47 1015.85 1016.23 1016.58 1016.88 1017.14 1017.35 1017.51 1017.66 1017.79 1017.93 1018.09 1018.27 1018.48 1018.70 1018.94 1019.18 1019.41 1019.62 1019.81 1019.97 1020.12 1020.25 1020.37 1020.49 1020.60 1020.70 1020.80 1020.87 1020.91 1020.92 1020.89 1020.81 1020.68 1020.53 1020.33 1020.12 1019.89
1014.99 1015.07 1015.24 1015.47 1015.77 1016.09 1016.42 1016.73 1017.01 1017.25 1017.43 1017.56 1017.65 1017.73 1017.80 1017.89 1018.00 1018.15 1018.34 1018.55 1018.79 1019.03 1019.27 1019.50 1019.71 1019.89 1020.05 1020.20 1020.32 1020.44 1020.55 1020.64 1020.72 1020.77 1020.79 1020.76 1020.69 1020.57 1020.40 1020.19 1019.95 1019.69 1019.41
1015.71 1015.79 1015.94 1016.14 1016.39 1016.67 1016.94 1017.19 1017.40 1017.56 1017.67 1017.74 1017.77 1017.79 1017.81 1017.86 1017.94 1018.07 1018.24 1018.45 1018.68 1018.93 1019.17 1019.41 1019.63 1019.82 1019.98 1020.13 1020.25 1020.35 1020.44 1020.51 1020.55 1020.57 1020.55 1020.48 1020.37 1020.20 1019.99 1019.73 1019.45 1019.15 1018.84
1016.39 1016.45 1016.58 1016.75 1016.95 1017.16 1017.37 1017.56 1017.70 1017.80 1017.86 1017.87 1017.86 1017.84 1017.84 1017.86 1017.92 1018.03 1018.19 1018.39 1018.62 1018.87 1019.11 1019.35 1019.56 1019.74 1019.89 1020.01 1020.11 1020.18 1020.23 1020.26 1020.26 1020.23 1020.16 1020.05 1019.89 1019.68 1019.43 1019.14 1018.82 1018.50 1018.17
1016.99 1017.03 1017.12 1017.24 1017.39 1017.54 1017.69 1017.81 1017.90 1017.95 1017.96 1017.94 1017.91 1017.87 1017.86 1017.87 1017.93 1018.04 1018.19 1018.39 1018.61 1018.84 1019.07 1019.28 1019.47 1019.62 1019.74 1019.82 1019.87 1019.89 1019.89 1019.86 1019.80 1019.72 1019.60 1019.44 1019.23 1018.99 1018.71 1018.40 1018.07 1017.74 1017.42
1017.48 1017.49 1017.53 1017.60 1017.69 1017.78 1017.87 1017.94 1017.98 1017.99 1017.98 1017.94 1017.90 1017.87 1017.86 1017.89 1017.95 1018.06 1018.21 1018.40 1018.60 1018.81 1019.01 1019.19 1019.33 1019.43 1019.49 1019.51 1019.49 1019.45 1019.38 1019.28 1019.16 1019.02 1018.84 1018.64 1018.40 1018.14 1017.84 1017.53 1017.22 1016.90 1016.61
1017.85 1017.81 1017.81 1017.82 1017.85 1017.89 1017.92 1017.94 1017.95 1017.94 1017.91 1017.87 1017.84 1017.82 1017.83 1017.87 1017.95 1018.06 1018.21 1018.39 1018.57 1018.75 1018.90 1019.03 1019.11 1019.14 1019.13 1019.08 1018.98 1018.86 1018.71 1018.54 1018.35 1018.15 1017.93 1017.69 1017.43 1017.16 1016.87 1016.58 1016.29 1016.01 1015.76
1018.11 1018.02 1017.96 1017.92 1017.89 1017.88 1017.86 1017.85 1017.83 1017.80 1017.77 1017.74 1017.72 1017.72 1017.74 1017.80 1017.89 1018.01 1018.16 1018.32 1018.47 1018.61 1018.71 1018.78 1018.79 1018.76 1018.67 1018.53 1018.35 1018.14 1017.91 1017.67 1017.42 1017.16 1016.90 1016.64 1016.38 1016.11 1015.85 1015.59 1015.34 1015.11 1014.91
1018.28 1018.15 1018.03 1017.94 1017.86 1017.80 1017.75 1017.70 1017.65 1017.61 1017.58 1017.55 1017.54 1017.55 1017.59 1017.66 1017.76 1017.88 1018.02 1018.16 1018.28 1018.38 1018.43 1018.44 1018.39 1018.28 1018.11 1017.89 1017.64 1017.35 1017.05 1016.74 1016.43 1016.13 1015.84 1015.57 1015.31 1015.06 1014.83 1014.62 1014.42 1014.25 1014.10
Thickness
5513 5512 5512 5512 5513 5514 5515 5516 5517 5519 5523 5526 5527 5527 5528 5530 5533 5534 5536 5537 5537 5537 5538 5539 5539 5538 5538 5537 5536 5535 5533 5530 5526 5522 5519 5517 5514 5512 5510 5507 5505 5502 5500
5508 5507 5507 5507 5507 5508 5510 5511 5512 5513 5515 5517 5518 5519 5520 5521 5523 5525 5526 5527 5527 5527 5528 5528 5528 5527 5526 5525 5524 5523 5521 5518 5514 5511 5507 5504 5502 5499 5497 5494 5492 5489 5487
5503 5502 5501 5501 5502 5503 5504 5505 5506 5506 5507 5509 5510 5511 5512 5513 5514 5516 5517 5517 5518 5518 5519 5519 5518 5516 5515 5514 5512 5511 5509 5506 5503 5499 5495 5492 5489 5486 5483 5480 5478 5476 5474
5499 5498 5497 5498 5498 5499 5499 5499 5500 5500 5500 5501 5502 5503 5504 5505 5505 5506 5507 5508 5508 5508 5509 5508 5507 5506 5505 5503 5501 5499 5496 5492 5489 5486 5482 5479 5475 5473 5469 5467 5464 5462 5460
5493 5493 5493 5493 5494 5493 5493 5493 5493 5493 5493 5493 5494 5494 5495 5496 5496 5497 5498 5498 5498 5498 5498 5497 5497 5496 5496 5494 5491 5488 5485 5480 5477 5473 5470 5466 5463 5459 5457 5454 5451 5448 5447
5488 5487 5487 5487 5487 5487 5486 5487 5487 5486 5485 5485 5486 5486 5487 5488 5489 5489 5489 5489 5488 5488 5488 5487 5486 5485 5484 5483 5482 5479 5475 5471 5466 5462 5458 5455 5453 5449 5445 5442 5437 5435 5434
5481 5480 5479 5479 5479 5479 5479 5479 5479 5478 5477 5477 5478 5478 5478 5479 5480 5481 5481 5480 5479 5479 5478 5476 5475 5475 5473 5471 5469 5466 5464 5461 5458 5453 5449 5446 5442 5439 5434 5430 5426 5422 5421
5473 5472 5471 5471 5470 5470 5470 5470 5469 5469 5469 5469 5470 5470 5470 5470 5471 5471 5471 5470 5469 5468 5467 5466 5464 5463 5461 5458 5455 5453 5450 5447 5445 5442 5439 5436 5432 5428 5424 5420 5416 5412 5409
5465 5464 5463 5462 5461 5461 5461 5461 5460 5460 5460 5460 5461 5460 5460 5460 5460 5460 5459 5458 5457 5456 5455 5454 5453 5451 5450 5448 5444 5441 5438 5435 5432 5430 5427 5424 5420 5416 5411 5406 5401 5397 5395
5456 5455 5455 5454 5453 5452 5452 5451 5451 5451 5451 5450 5450 5450 5450 5449 5449 5449 5448 5446 5445 5444 5443 5442 5441 5440 5438 5436 5432 5428 5425 5423 5420 5417 5414 5410 5406 5402 5398 5394 5389 5384 5381
5447 5446 5445 5444 5443 5443 5442 5442 5441 5441 5440 5440 5439 5438 5438 5438 5438 5437 5436 5435 5434 5432 5431 5429 5428 5427 5426 5423 5420 5417 5415 5412 5408 5403 5399 5395 5392 5389 5385 5381 5377 5372 5368
5436 5435 5434 5433 5433 5432 5431 5431 5430 5429 5429 5428 5427 5426 5425 5425 5425 5425 5425 5424 5423 5421 5419 5418 5416 5415 5413 5411 5408 5405 5402 5399 5394 5390 5386 5382 5379 5375 5372 5368 5364 5360 5357
5424 5422 5422 5421 5421 5420 5419 5418 5417 5417 5416 5416 5415 5414 5413 5413 5413 5413 5413 5413 5412 5410 5408 5406 5404 5403 5401 5398 5396 5393 5389 5384 5380 5376 5373 5370 5367 5363 5359 5354 5351 5347 5344
5412 5411 5410 5409 5409 5408 5407 5406 5405 5404 5404 5403 5403 5402 5401 5401 5400 5400 5400 5399 5399 5397 5395 5393 5392 5390 5387 5385 5382 5378 5374 5371 5368 5364 5361 5357 5353 5349 5345 5342 5338 5334 5331
5399 5398 5398 5397 5396 5395 5394 5393 5393 5393 5392 5392 5392 5391 5390 5389 5390 5390 5388 5387 5386 5384 5382 5380 5377 5374 5372 5370 5367 5364 5360 5357 5354 5351 5347 5343 5340 5336 5333 5329 5325 5322 5318
5387 5386 5385 5384 5383 5382 5381 5381 5382 5382 5382 5381 5381 5379 5379 5379 5379 5379 5378 5377 5376 5374 5371 5368 5366 5363 5361 5359 5355 5351 5348 5345 5342 5338 5334 5331 5327 5324 5320 5317 5313 5310 5307
5374 5373 5371 5370 5370 5369 5368 5369 5369 5370 5370 5369 5368 5368 5368 5368 5368 5368 5367 5366 5365 5363 5360 5358 5355 5353 5350 5347 5344 5340 5337 5333 5330 5326 5322 5319 5315 5312 5309 5306 5303 5299 5296
5361 5361 5360 5358 5357 5356 5356 5355 5355 5355 5356 5355 5355 5356 5356 5356 5357 5357 5356 5355 5353 5351 5348 5346 5344 5341 5339 5335 5332 5329 5325 5322 5318 5315 5311 5308 5305 5302 5299 5296 5293 5289 5287
5349 5348 5347 5346 5345 5344 5343 5343 5342 5342 5342 5342 5343 5343 5344 5345 5345 5345 5344 5342 5340 5339 5337 5335 5333 5331 5328 5325 5322 5318 5314 5311 5308 5304 5302 5299 5296 5293 5290 5287 5284 5282 5279
5337 5336 5335 5334 5333 5332 5332 5331 5331 5330 5330 5330 5330 5331 5331 5331 5331 5331 5330 5328 5327 5326 5325 5324 5322 5319 5317 5314 5311 5308 5304 5301 5298 5295 5293 5290 5287 5285 5282 5279 5276 5274 5272
5324 5323 5324 5322 5321 5321 5321 5320 5319 5319 5319 5319 5319 5319 5320 5319 5318 5318 5317 5316 5315 5314 5313 5312 5310 5307 5305 5303 5300 5298 5295 5293 5290 5288 5285 5282 5280 5277 5274 5272 5269 5266 5264
5311 5310 5310 5310 5309 5309 5308 5308 5308 5308 5308 5308 5308 5308 5308 5307 5306 5305 5305 5304 5303 5303 5302 5300 5299 5297 5295 5293 5291 5289 5287 5285 5283 5280 5277 5274 5272 5269 5267 5264 5262 5259 5256
5298 5298 5297 5297 5296 5297 5296 5296 5296 5296 5296 5296 5296 5296 5295 5295 5294 5294 5293 5293 5292 5291 5290 5290 5289 5287 5286 5284 5282 5281 5279 5277 5275 5273 5270 5268 5265 5262 5260 5257 5255 5252 5250
5286 5286 5285 5284 5284 5284 5284 5284 5284 5284 5284 5284 5284 5284 5283 5283 5283 5283 5282 5282 5281 5281 5280 5279 5278 5277 5276 5275 5274 5272 5271 5270 5268 5266 5264 5261 5259 5256 5254 5251 5249 5246 5244
5274 5273 5273 5272 5272 5272 5272 5272 5272 5272 5272 5272 5272 5272 5272 5272 5272 5273 5273 5272 5271 5271 5270 5269 5268 5268 5267 5266 5265 5264 5263 5262 5260 5259 5257 5255 5253 5251 5248 5245 5243 5240 5238
5262 5261 5261 5260 5260 5260 5260 5260 5260 5260 5259 5260 5260 5261 5261 5262 5263 5263 5263 5262 5262 5262 5261 5260 5260 5259 5259 5258 5257 5256 5255 5254 5253 5252 5250 5249 5247 5244 5242 5240 5237 5235 5232